Location: Grust
(42.8833°N, 0.0333°W)
Time: 20:15:09
(UTC+00:00)

YAOGAN 1 - Pass Details

Date: 25 October 2020
Orbit: 618 x 620 km, 97.9° (Epoch: 22 November)

Event Time Altitude Azimuth Distance (km) Brightness Sun altitude
Rises 19:17:54 0° 188° (S) 2,883 6.0 -25.6°
Reaches altitude 10° 19:20:14 10° 198° (SSW) 1,982 5.2 -26.0°
Maximum altitude 19:24:09 33° 263° (W) 1,039 4.2 -26.7°
Drops below altitude 10° 19:28:06 10° 328° (NNW) 1,996 5.6 -27.4°
Sets 19:30:28 0° 338° (NNW) 2,906 6.4 -27.8°
